CE2KVL-1 Weather Reports


time (UTC)temp
C
wind
direction
speed
KPH
gust
KPH
rain 1hr
cm
rain 24hr
cm
rain mn
cm
humidity
%
barometer
mb
20260509135306 11 0.0 0.0 0.00 0.00 0.00 81 1023.1
20260509134807 11 0.0 0.0 0.00 0.00 0.00 81 1023.3
20260509134306 11 0.0 0.0 0.00 0.00 0.00 82 1023.1
20260509133807 10 0.0 0.0 0.00 0.00 0.00 83 1023.8
20260509133307 11 0.0 0.0 0.00 0.00 0.00 82 1023.1
20260509132806 10 0.0 0.0 0.00 0.00 0.00 83 1023.2
20260509132307 10 0.0 0.0 0.00 0.00 0.00 85 1023.2
20260509131806 10 0.0 0.0 0.00 0.00 0.00 85 1023.6
20260509131306 10 0.0 0.0 0.00 0.00 0.00 86 1023.5
20260509130806 10 0.0 0.0 0.00 0.00 0.00 85 1023.5
20260509130307 10 0.0 0.0 0.00 0.00 0.00 86 1023.6
20260509125806 10 0.0 0.0 0.00 0.00 0.00 85 1023.7
20260509125308 9 0.0 0.0 0.00 0.00 0.00 85 1024.0
20260509124807 9 0.0 0.0 0.00 0.00 0.00 84 1023.7
20260509124306 9 0.0 0.0 0.00 0.00 0.00 84 1023.8
20260509123807 9 0.0 0.0 0.00 0.00 0.00 84 1023.8
20260509123306 9 0.0 0.0 0.00 0.00 0.00 83 1023.8
20260509122807 8 0.0 0.0 0.00 0.00 0.00 84 1023.7
20260509122306 8 0.0 0.0 0.00 0.00 0.00 86 1024.1
20260509121806 8 0.0 0.0 0.00 0.00 0.00 88 1023.6
20260509121307 8 0.0 0.0 0.00 0.00 0.00 88 1024.3
20260509120806 8 0.0 0.0 0.00 0.00 0.00 88 1023.9
20260509120307 8 0.0 0.0 0.00 0.00 0.00 89 1024.1
20260509115806 8 0.0 0.0 0.00 0.00 0.00 89 1024.0
20260509115308 7 0.0 0.0 0.00 0.00 0.00 89 1024.4
20260509114807 8 0.0 0.0 0.00 0.00 0.00 90 1023.9
20260509114306 7 0.0 0.0 0.00 0.00 0.00 90 1024.2
20260509113807 7 0.0 0.0 0.00 0.00 0.00 91 1024.0
20260509113306 7 0.0 0.0 0.00 0.00 0.00 90 1024.4
20260509112807 8 0.0 0.0 0.00 0.00 0.00 90 1023.8
20260509112307 8 0.0 0.0 0.00 0.00 0.00 90 1024.1
20260509111806 8 0.0 0.0 0.00 0.00 0.00 90 1024.0
20260509111306 8 0.0 0.0 0.00 0.00 0.00 91 1023.9
20260509110806 8 0.0 0.0 0.00 0.00 0.00 90 1024.4
20260509110307 8 0.0 0.0 0.00 0.00 0.00 92 1023.4
20260509105806 8 0.0 0.0 0.00 0.00 0.00 91 1023.9
20260509105307 8 0.0 0.0 0.00 0.00 0.00 92 1023.8
20260509104806 8 0.0 0.0 0.00 0.00 0.00 94 1023.7
20260509104307 8 0.0 0.0 0.00 0.00 0.00 94 1023.9
20260509103806 8 0.0 0.0 0.00 0.00 0.00 94 1024.0
20260509103306 8 0.0 0.0 0.00 0.00 0.00 95 1024.1
20260509102807 8 0.0 0.0 0.00 0.00 0.00 95 1023.7
20260509102306 8 0.0 0.0 0.00 0.00 0.00 95 1023.9
20260509101807 8 0.0 0.0 0.00 0.00 0.00 95 1024.7
20260509101306 8 0.0 0.0 0.00 0.00 0.00 93 1023.8
20260509100806 8 0.0 0.0 0.00 0.00 0.00 97 1022.6
20260509100306 7 0.0 0.0 0.00 0.00 0.00 98 1023.5
20260509095806 7 0.0 0.0 0.00 0.00 0.00 10 1024.0
20260509095306 7 0.0 0.0 0.00 0.00 0.00 10 1023.5
20260509094806 7 0.0 0.0 0.00 0.00 0.00 10 1024.1
20260509094306 7 0.0 0.0 0.00 0.00 0.00 10 1024.0
20260509093806 7 0.0 0.0 0.00 0.00 0.00 10 1024.0
20260509093306 7 0.0 0.0 0.00 0.00 0.00 10 1023.8
20260509092806 7 0.0 0.0 0.00 0.00 0.00 10 1023.7
20260509092307 7 0.0 0.0 0.00 0.00 0.00 10 1023.9
20260509091806 7 0.0 0.0 0.00 0.00 0.00 10 1024.1
20260509091306 7 0.0 0.0 0.00 0.00 0.00 10 1023.1
20260509090806 7 0.0 0.0 0.00 0.00 0.00 10 1023.8
20260509090306 7 0.0 0.0 0.00 0.00 0.00 10 1023.6
20260509085806 7 0.0 0.0 0.00 0.00 0.00 10 1023.6
20260509085307 7 0.0 0.0 0.00 0.00 0.00 10 1023.8
20260509084807 8 0.0 0.0 0.00 0.00 0.00 10 1023.7
20260509084306 8 0.0 0.0 0.00 0.00 0.00 10 1023.4
20260509083806 8 0.0 0.0 0.00 0.00 0.00 10 1023.1
20260509083306 7 0.0 0.0 0.00 0.00 0.00 10 1023.7
20260509082806 8 0.0 0.0 0.00 0.00 0.00 10 1023.6
20260509082307 8 0.0 0.0 0.00 0.00 0.00 10 1023.2
20260509081806 8 0.0 0.0 0.00 0.00 0.00 10 1023.6
20260509081306 8 0.0 0.0 0.00 0.00 0.00 10 1023.8
20260509080806 8 0.0 0.0 0.00 0.00 0.00 10 1023.5
20260509080306 8 0.0 0.0 0.00 0.00 0.00 10 1024.3
20260509075806 8 0.0 0.0 0.00 0.00 0.00 99 1023.4
20260509075306 8 0.0 0.0 0.00 0.00 0.00 10 1023.9
20260509074806 8 0.0 0.0 0.00 0.00 0.00 99 1024.1
20260509074306 9 0.0 0.0 0.00 0.00 0.00 95 1022.8
20260509073806 9 0.0 0.0 0.00 0.00 0.00 98 1023.0
20260509073306 8 0.0 0.0 0.00 0.00 0.00 98 1023.4
20260509072806 9 0.0 0.0 0.00 0.00 0.00 98 1023.5
20260509072307 9 0.0 0.0 0.00 0.00 0.00 98 1022.3
20260509071807 8 0.0 0.0 0.00 0.00 0.00 10 1022.9
20260509071306 8 0.0 0.0 0.00 0.00 0.00 10 1023.4
20260509070806 8 0.0 0.0 0.00 0.00 0.00 10 1023.6
20260509070306 8 0.0 0.0 0.00 0.00 0.00 10 1024.0
20260509065806 9 0.0 0.0 0.00 0.00 0.00 98 1023.3
20260509065306 8 0.0 0.0 0.00 0.00 0.00 10 1023.0
20260509064806 8 0.0 0.0 0.00 0.00 0.00 10 1023.7
20260509064306 8 0.0 0.0 0.00 0.00 0.00 10 1023.6
20260509063806 8 0.0 0.0 0.00 0.00 0.00 10 1023.7
20260509063306 8 0.0 0.0 0.00 0.00 0.00 10 1024.1
20260509062806 8 0.0 0.0 0.00 0.00 0.00 99 1024.0
20260509062306 9 0.0 0.0 0.00 0.00 0.00 10 1024.2
20260509061806 9 0.0 0.0 0.00 0.00 0.00 99 1024.4
20260509061306 9 0.0 0.0 0.00 0.00 0.00 98 1024.3
20260509060806 10 0.0 0.0 0.00 0.00 0.00 95 1024.0
20260509060306 10 0.0 0.0 0.00 0.00 0.00 96 1023.1
20260509055806 9 0.0 0.0 0.00 0.00 0.00 97 1023.6
20260509055307 9 0.0 0.0 0.00 0.00 0.00 99 1023.6
20260509054806 9 0.0 0.0 0.00 0.00 0.00 99 1023.9
20260509054306 9 0.0 0.0 0.00 0.00 0.00 97 1023.5
20260509053806 9 0.0 0.0 0.00 0.00 0.00 96 1023.6
20260509053306 9 0.0 0.0 0.00 0.00 0.00 95 1024.4
20260509052806 10 0.0 0.0 0.00 0.00 0.00 93 1024.2
20260509052307 10 0.0 0.0 0.00 0.00 0.00 92 1023.9
20260509051806 10 0.0 0.0 0.00 0.00 0.00 91 1024.0
20260509051306 10 0.0 0.0 0.00 0.00 0.00 90 1024.4
20260509050806 10 0.0 0.0 0.00 0.00 0.00 90 1024.0
20260509050306 10 0.0 0.0 0.00 0.00 0.00 89 1023.9
20260509045806 10 0.0 0.0 0.00 0.00 0.00 89 1023.7
20260509045307 10 0.0 0.0 0.00 0.00 0.00 88 1023.9
20260509044806 10 0.0 0.0 0.00 0.00 0.00 88 1023.8
20260509044306 10 0.0 0.0 0.00 0.00 0.00 87 1023.7
20260509043806 10 0.0 0.0 0.00 0.00 0.00 87 1023.4
20260509043306 10 0.0 0.0 0.00 0.00 0.00 87 1023.7
20260509042806 10 0.0 0.0 0.00 0.00 0.00 87 1023.8
20260509042307 10 0.0 0.0 0.00 0.00 0.00 87 1023.9
20260509041806 10 0.0 0.0 0.00 0.00 0.00 88 1023.1
20260509041306 10 0.0 0.0 0.00 0.00 0.00 88 1024.3
20260509040806 10 0.0 0.0 0.00 0.00 0.00 88 1024.3
20260509040306 11 0.0 0.0 0.00 0.00 0.00 86 1023.9
20260509035806 10 0.0 0.0 0.00 0.00 0.00 86 1024.6
20260509035306 11 0.0 0.0 0.00 0.00 0.00 85 1024.3
20260509034806 11 0.0 0.0 0.00 0.00 0.00 83 1024.2
20260509034307 11 0.0 0.0 0.00 0.00 0.00 83 1024.1
20260509033806 11 0.0 0.0 0.00 0.00 0.00 83 1024.2
20260509033306 11 0.0 0.0 0.00 0.00 0.00 83 1023.8
20260509032806 11 0.0 0.0 0.00 0.00 0.00 83 1024.0
20260509032307 11 0.0 0.0 0.00 0.00 0.00 84 1024.0
20260509031806 11 0.0 0.0 0.00 0.00 0.00 84 1024.1
20260509031307 11 0.0 0.0 0.00 0.00 0.00 85 1024.5
20260509030806 11 0.0 0.0 0.00 0.00 0.00 86 1024.2
20260509030306 11 0.0 0.0 0.00 0.00 0.00 87 1024.5
20260509025806 11 0.0 0.0 0.00 0.00 0.00 87 1024.6
20260509025307 11 0.0 0.0 0.00 0.00 0.00 88 1024.7
20260509024806 11 0.0 0.0 0.00 0.00 0.00 89 1024.5
20260509024306 11 0.0 0.0 0.00 0.00 0.00 89 1024.9
20260509023807 11 0.0 0.0 0.00 0.00 0.00 90 1024.5
20260509023306 11 0.0 0.0 0.00 0.00 0.00 91 1024.7
20260509022806 10 0.0 0.0 0.00 0.00 0.00 91 1025.2
20260509022307 11 0.0 0.0 0.00 0.00 0.00 91 1024.9
20260509021806 11 0.0 0.0 0.00 0.00 0.00 90 1025.0
20260509021306 11 0.0 0.0 0.00 0.00 0.00 89 1024.8
20260509020806 11 0.0 0.0 0.00 0.00 0.00 89 1024.6
20260509020306 11 0.0 0.0 0.00 0.00 0.00 89 1024.6
20260509015806 11 0.0 0.0 0.00 0.00 0.00 89 1024.6
20260509015306 11 0.0 0.0 0.00 0.00 0.00 88 1024.7
20260509014806 11 0.0 0.0 0.00 0.00 0.00 87 1024.3
20260509014306 11 0.0 0.0 0.00 0.00 0.00 87 1024.7
20260509013806 11 0.0 0.0 0.00 0.00 0.00 87 1024.4
20260509013306 11 0.0 0.0 0.00 0.00 0.00 86 1024.4
20260509012806 11 0.0 0.0 0.00 0.00 0.00 86 1023.9
20260509012307 11 0.0 0.0 0.00 0.00 0.00 86 1023.9
20260509011806 11 0.0 0.0 0.00 0.00 0.00 87 1024.1
20260509011306 11 0.0 0.0 0.00 0.00 0.00 86 1023.8
20260509010806 11 0.0 0.0 0.00 0.00 0.00 87 1024.2
20260509010306 11 0.0 0.0 0.00 0.00 0.00 86 1024.3
20260509005806 11 0.0 0.0 0.00 0.00 0.00 85 1024.4
20260509005306 12 0.0 0.0 0.00 0.00 0.00 83 1024.2
20260509004806 12 0.0 0.0 0.00 0.00 0.00 83 1024.3
20260509004306 12 0.0 0.0 0.00 0.00 0.00 83 1024.3
20260509003806 12 0.0 0.0 0.00 0.00 0.00 84 1024.1
20260509003306 12 0.0 0.0 0.00 0.00 0.00 86 1024.0
20260509002806 12 0.0 0.0 0.00 0.00 0.00 86 1024.1
20260509002307 12 0.0 0.0 0.00 0.00 0.00 85 1024.1
20260509001806 12 0.0 0.0 0.00 0.00 0.00 84 1023.7
20260509001306 12 0.0 0.0 0.00 0.00 0.00 84 1023.7
20260509000806 12 0.0 0.0 0.00 0.00 0.00 84 1023.7
20260509000307 12 0.0 0.0 0.00 0.00 0.00 83 1023.9
20260508235806 12 0.0 0.0 0.00 0.00 0.00 81 1023.6
20260508235306 12 0.0 0.0 0.00 0.00 0.00 80 1023.7
20260508234806 12 0.0 0.0 0.00 0.00 0.00 79 1023.8
20260508234306 13 0.0 0.0 0.00 0.00 0.00 78 1023.7
20260508233806 13 0.0 0.0 0.00 0.00 0.00 76 1023.7
20260508233306 13 0.0 0.0 0.00 0.00 0.00 74 1023.7
20260508232806 13 0.0 0.0 0.00 0.00 0.00 71 1023.7
20260508232307 13 0.0 0.0 0.00 0.00 0.00 69 1023.8
20260508231806 14 0.0 0.0 0.00 0.00 0.00 65 1023.4
20260508231306 14 0.0 0.0 0.00 0.00 0.00 64 1023.1
20260508230806 14 0.0 0.0 0.00 0.00 0.00 63 1023.2
20260508230306 14 0.0 0.0 0.00 0.00 0.00 64 1023.7
20260508225806 14 0.0 0.0 0.00 0.00 0.00 63 1023.3
20260508225307 14 0.0 0.0 0.00 0.00 0.00 62 1023.3
20260508224806 14 0.0 0.0 0.00 0.00 0.00 62 1023.0
20260508224306 14 0.0 0.0 0.00 0.00 0.00 62 1023.3
20260508223806 14 0.0 0.0 0.00 0.00 0.00 61 1023.4
20260508223306 14 0.0 0.0 0.00 0.00 0.00 60 1022.9
20260508222806 14 0.0 0.0 0.00 0.00 0.00 60 1022.9
20260508222306 14 0.0 0.0 0.00 0.00 0.00 60 1022.9
20260508221806 14 0.0 0.0 0.00 0.00 0.00 60 1022.9
20260508221306 14 0.0 0.0 0.00 0.00 0.00 59 1022.9
20260508220806 14 0.0 0.0 0.00 0.00 0.00 59 1022.6
20260508220306 14 0.0 0.0 0.00 0.00 0.00 59 1023.0
20260508215806 14 0.0 0.0 0.00 0.00 0.00 58 1023.2
20260508215307 15 0.0 0.0 0.00 0.00 0.00 57 1022.8
20260508214806 15 0.0 0.0 0.00 0.00 0.00 56 1023.1
20260508214306 15 0.0 0.0 0.00 0.00 0.00 54 1022.8
20260508213806 15 0.0 0.0 0.00 0.00 0.00 51 1022.6
20260508213307 15 0.0 0.0 0.00 0.00 0.00 46 1022.5
20260508212806 15 0.0 0.0 0.00 0.00 0.00 44 1022.3
20260508212306 15 0.0 0.0 0.00 0.00 0.00 44 1022.5
20260508211806 15 0.0 0.0 0.00 0.00 0.00 43 1022.2
20260508211306 15 0.0 0.0 0.00 0.00 0.00 42 1022.3
20260508210806 15 0.0 0.0 0.00 0.00 0.00 43 1022.5
20260508210306 16 0.0 0.0 0.00 0.00 0.00 44 1021.9
20260508205806 15 0.0 0.0 0.00 0.00 0.00 43 1022.3
20260508205306 16 0.0 0.0 0.00 0.00 0.00 44 1022.1
20260508204806 16 0.0 0.0 0.00 0.00 0.00 43 1022.2
20260508204306 16 0.0 0.0 0.00 0.00 0.00 45 1022.0
20260508203806 16 0.0 0.0 0.00 0.00 0.00 45 1022.1
20260508203307 16 0.0 0.0 0.00 0.00 0.00 45 1022.1
20260508202805 16 0.0 0.0 0.00 0.00 0.00 46 1022.1
20260508202307 16 0.0 0.0 0.00 0.00 0.00 44 1022.0
20260508201806 16 0.0 0.0 0.00 0.00 0.00 43 1022.0
20260508201306 16 0.0 0.0 0.00 0.00 0.00 42 1022.1
20260508200806 16 0.0 0.0 0.00 0.00 0.00 41 1021.8
20260508200306 16 0.0 0.0 0.00 0.00 0.00 41 1021.9
20260508195805 16 0.0 0.0 0.00 0.00 0.00 41 1022.0
20260508195306 16 0.0 0.0 0.00 0.00 0.00 41 1021.9
20260508194806 16 0.0 0.0 0.00 0.00 0.00 40 1022.2
20260508194306 16 0.0 0.0 0.00 0.00 0.00 40 1022.2
20260508193806 16 0.0 0.0 0.00 0.00 0.00 40 1022.2
20260508193305 16 0.0 0.0 0.00 0.00 0.00 38 1022.7
20260508192806 16 0.0 0.0 0.00 0.00 0.00 40 1022.3
20260508192306 16 0.0 0.0 0.00 0.00 0.00 39 1022.3
20260508191806 16 0.0 0.0 0.00 0.00 0.00 41 1022.6
20260508191306 16 0.0 0.0 0.00 0.00 0.00 40 1022.0
20260508190806 16 0.0 0.0 0.00 0.00 0.00 38 1022.7
20260508190306 16 0.0 0.0 0.00 0.00 0.00 38 1022.8
20260508185806 16 0.0 0.0 0.00 0.00 0.00 40 1022.4
20260508185306 16 0.0 0.0 0.00 0.00 0.00 41 1022.7
20260508184806 16 0.0 0.0 0.00 0.00 0.00 41 1022.9
20260508184306 16 0.0 0.0 0.00 0.00 0.00 41 1022.7
20260508183805 15 0.0 0.0 0.00 0.00 0.00 40 1023.3
20260508183305 16 0.0 0.0 0.00 0.00 0.00 44 1023.1
20260508182806 16 0.0 0.0 0.00 0.00 0.00 45 1023.2
20260508182307 16 0.0 0.0 0.00 0.00 0.00 48 1022.8
20260508181806 15 0.0 0.0 0.00 0.00 0.00 51 1023.1
20260508181306 15 0.0 0.0 0.00 0.00 0.00 52 1023.1
20260508180806 15 0.0 0.0 0.00 0.00 0.00 52 1023.0
20260508180306 15 0.0 0.0 0.00 0.00 0.00 54 1022.6
20260508175806 15 0.0 0.0 0.00 0.00 0.00 55 1023.6
20260508175306 15 0.0 0.0 0.00 0.00 0.00 55 1023.1
20260508174806 15 0.0 0.0 0.00 0.00 0.00 55 1023.7
20260508174306 15 0.0 0.0 0.00 0.00 0.00 56 1023.0
20260508173806 15 0.0 0.0 0.00 0.00 0.00 53 1023.2
20260508173305 15 0.0 0.0 0.00 0.00 0.00 55 1024.1
20260508172806 15 0.0 0.0 0.00 0.00 0.00 57 1023.8
20260508172307 15 0.0 0.0 0.00 0.00 0.00 63 1023.4
20260508171805 15 0.0 0.0 0.00 0.00 0.00 64 1024.0
20260508171306 15 0.0 0.0 0.00 0.00 0.00 65 1023.7
20260508170806 15 0.0 0.0 0.00 0.00 0.00 64 1024.2
20260508170306 15 0.0 0.0 0.00 0.00 0.00 63 1024.0
20260508165806 14 0.0 0.0 0.00 0.00 0.00 65 1024.6
20260508165307 14 0.0 0.0 0.00 0.00 0.00 70 1024.4
20260508164806 14 0.0 0.0 0.00 0.00 0.00 72 1024.3
20260508164306 14 0.0 0.0 0.00 0.00 0.00 73 1024.2
20260508163806 14 0.0 0.0 0.00 0.00 0.00 74 1025.1
20260508163306 14 0.0 0.0 0.00 0.00 0.00 76 1025.1
20260508162805 14 0.0 0.0 0.00 0.00 0.00 79 1024.8
20260508162307 13 0.0 0.0 0.00 0.00 0.00 81 1024.7
20260508161806 13 0.0 0.0 0.00 0.00 0.00 82 1025.1
20260508161305 13 0.0 0.0 0.00 0.00 0.00 83 1025.2
20260508160806 13 0.0 0.0 0.00 0.00 0.00 84 1024.9
20260508160306 13 0.0 0.0 0.00 0.00 0.00 84 1025.4
20260508155806 13 0.0 0.0 0.00 0.00 0.00 86 1025.6
20260508155306 13 0.0 0.0 0.00 0.00 0.00 87 1025.0
20260508154805 13 0.0 0.0 0.00 0.00 0.00 87 1025.2
20260508154305 13 0.0 0.0 0.00 0.00 0.00 86 1026.1
20260508153806 13 0.0 0.0 0.00 0.00 0.00 86 1025.0
20260508153306 13 0.0 0.0 0.00 0.00 0.00 86 1025.2
20260508152806 13 0.0 0.0 0.00 0.00 0.00 87 1024.8
20260508152306 12 0.0 0.0 0.00 0.00 0.00 88 1026.1
20260508151806 12 0.0 0.0 0.00 0.00 0.00 88 1025.4
20260508151305 12 0.0 0.0 0.00 0.00 0.00 86 1026.4
20260508150806 12 0.0 0.0 0.00 0.00 0.00 87 1025.5
20260508150305 12 0.0 0.0 0.00 0.00 0.00 88 1026.6
20260508145805 12 0.0 0.0 0.00 0.00 0.00 88 1025.5
20260508145307 12 0.0 0.0 0.00 0.00 0.00 89 1026.5
20260508144806 12 0.0 0.0 0.00 0.00 0.00 90 1026.0
20260508144306 12 0.0 0.0 0.00 0.00 0.00 91 1026.1
20260508143805 12 0.0 0.0 0.00 0.00 0.00 91 1025.9
20260508143305 12 0.0 0.0 0.00 0.00 0.00 95 1026.2
20260508142806 12 0.0 0.0 0.00 0.00 0.00 96 1026.8
20260508141806 12 0.0 0.0 0.00 0.00 0.00 96 1027.5
20260508141306 12 0.0 0.0 0.00 0.00 0.00 96 1026.1
20260508140805 11 0.0 0.0 0.00 0.00 0.00 99 1027.0
20260508140305 11 0.0 0.0 0.00 0.00 0.00 99 1027.0
20260508135806 11 0.0 0.0 0.00 0.00 0.00 98 1027.4